DW4300 Weather Reports


time (UTC)temp
F
wind
direction
speed
knots
gust
knots
rain 1hr
in
rain 24hr
in
rain mn
in
humidity
%
barometer
mb
20260505022723 72 187 13.9 24.3 0.00 0.20 0.20 58 1002.5
20260505022224 72 189 14.8 23.5 0.00 0.20 0.20 58 1002.5
20260505021725 72 188 13.9 26.1 0.00 0.20 0.20 57 1002.4
20260505021223 72 188 13.0 26.1 0.00 0.20 0.20 57 1002.3
20260505020724 72 188 13.0 26.1 0.00 0.20 0.20 57 1002.2
20260505020225 72 188 13.0 23.5 0.00 0.20 0.20 57 1002.2
20260505015723 72 187 13.9 28.7 0.00 0.20 0.20 56 1002.0
20260505014725 73 187 14.8 22.6 0.00 0.20 0.20 55 1002.0
20260505014223 73 188 13.9 22.6 0.00 0.20 0.20 55 1002.0
20260505013723 73 188 12.2 19.1 0.00 0.20 0.20 55 1002.0
20260505013225 73 188 12.2 20.9 0.00 0.20 0.20 55 1002.0
20260505012723 73 187 13.0 20.9 0.00 0.20 0.20 55 1002.1
20260505011724 73 186 13.9 21.7 0.00 0.20 0.20 54 1001.9
20260505011223 74 185 14.8 25.2 0.00 0.20 0.20 54 1001.8
20260505010724 74 179 14.8 25.2 0.00 0.20 0.20 54 1001.6
20260505010225 73 175 14.8 22.6 0.00 0.20 0.20 54 1001.4
20260505005723 74 174 14.8 22.6 0.00 0.20 0.20 54 1001.5
20260505005223 73 176 13.9 22.6 0.00 0.20 0.20 54 1001.4
20260505003723 73 187 12.2 22.6 0.00 0.20 0.20 55 1001.8
20260505003225 73 179 13.0 22.6 0.00 0.20 0.20 55 1001.4
20260505002722 74 188 11.3 20.0 0.00 0.20 0.20 53 1001.9
20260505002223 74 190 10.4 20.0 0.00 0.20 0.20 52 1002.2
20260505001725 74 190 10.4 20.0 0.00 0.20 0.20 52 1002.1
20260505001223 74 191 10.4 18.2 0.00 0.20 0.20 51 1002.1
20260505000723 74 193 10.4 18.2 0.00 0.20 0.20 52 1001.9
20260505000226 74 193 11.3 18.2 0.00 0.20 0.20 52 1001.7
20260504235723 74 191 12.2 23.5 0.00 0.20 0.20 51 1001.7
20260504235223 74 189 13.0 24.3 0.00 0.20 0.20 51 1001.6
20260504234725 75 189 13.9 25.2 0.00 0.20 0.20 50 1001.6
20260504234223 75 191 13.9 25.2 0.00 0.20 0.20 51 1001.5
20260504233724 75 193 13.9 26.1 0.00 0.20 0.20 50 1001.5
20260504232722 75 190 13.9 26.1 0.00 0.20 0.20 50 1001.7
20260504232223 76 194 14.8 26.1 0.00 0.20 0.20 49 1001.8
20260504231724 76 191 13.9 22.6 0.00 0.20 0.20 49 1001.8
20260504231223 76 192 13.0 21.7 0.00 0.20 0.20 49 1001.9
20260504230224 76 190 15.6 26.1 0.00 0.20 0.20 48 1002.0
20260504225223 76 190 16.5 29.5 0.00 0.20 0.20 49 1002.0
20260504224725 76 189 16.5 25.2 0.00 0.20 0.20 48 1002.0
20260504224223 76 188 14.8 26.9 0.00 0.20 0.20 49 1002.0
20260504223224 76 193 15.6 25.2 0.00 0.20 0.20 50 1002.0
20260504222723 75 194 13.9 25.2 0.00 0.20 0.20 50 1002.1
20260504222224 75 195 13.0 24.3 0.00 0.20 0.20 50 1002.0
20260504221725 75 193 13.0 24.3 0.00 0.20 0.20 50 1002.2
20260504221223 75 191 13.0 22.6 0.00 0.20 0.20 50 1002.0
20260504220723 75 190 12.2 20.9 0.00 0.20 0.20 51 1002.0
20260504220224 75 187 13.0 29.5 0.00 0.20 0.20 53 1001.9
20260504215723 74 186 13.9 29.5 0.00 0.20 0.20 51 1001.8
20260504215223 74 185 14.8 26.9 0.00 0.20 0.20 52 1001.8
20260504214725 74 183 15.6 26.9 0.00 0.20 0.20 52 1001.7
20260504214223 74 178 15.6 23.5 0.00 0.20 0.20 52 1001.8
20260504213722 74 179 15.6 25.2 0.00 0.20 0.20 53 1001.8
20260504213225 74 181 15.6 28.7 0.00 0.20 0.20 52 1001.9
20260504212723 74 181 17.4 28.7 0.00 0.20 0.20 55 1002.0
20260504212223 73 183 17.4 28.7 0.00 0.20 0.20 55 1002.3
20260504211724 73 183 16.5 28.7 0.00 0.20 0.20 55 1002.6
20260504211223 73 186 14.8 26.1 0.00 0.20 0.20 58 1002.8
20260504210723 72 184 13.0 24.3 0.00 0.20 0.20 61 1002.9
20260504210224 72 179 13.9 21.7 0.00 0.20 0.20 61 1002.8
20260504205723 72 179 14.8 21.7 0.00 0.20 0.20 60 1002.7
20260504205223 72 176 15.6 23.5 0.00 0.20 0.20 60 1002.5
20260504204223 71 172 17.4 26.9 0.00 0.20 0.20 60 1002.3
20260504203722 71 174 19.1 37.4 0.00 0.20 0.20 62 1002.2
20260504203225 72 177 18.2 37.4 0.00 0.20 0.20 59 1002.3
20260504202723 70 174 19.1 31.3 0.00 0.20 0.20 62 1002.1
20260504202223 69 174 20.9 31.3 0.00 0.20 0.20 67 1002.3
20260504201724 69 177 17.4 27.8 0.00 0.20 0.20 67 1002.8
20260504201222 69 179 13.9 26.1 0.00 0.20 0.20 69 1003.7
20260504200723 68 185 10.4 18.2 0.00 0.20 0.20 70 1004.7
20260504200224 68 183 9.6 14.8 0.00 0.20 0.20 73 1005.0
20260504195723 67 185 7.8 13.9 0.00 0.20 0.20 74 1004.7
20260504195223 67 189 7.0 9.6 0.00 0.20 0.20 75 1004.9
20260504194724 67 186 6.1 9.6 0.00 0.20 0.20 75 1004.9
20260504194223 67 193 5.2 7.8 0.00 0.20 0.20 76 1004.9
20260504193722 67 185 4.3 8.7 0.00 0.20 0.20 76 1005.3
20260504193225 67 179 4.3 8.7 0.00 0.20 0.20 76 1005.3
20260504192723 67 184 2.6 5.2 0.00 0.20 0.20 76 1005.5
20260504191725 68 217 0.0 2.6 0.00 0.20 0.20 70 1006.0
20260504190722 69 226 0.9 2.6 0.00 0.20 0.20 69 1006.5
20260504190224 69 226 1.7 3.5 0.00 0.20 0.20 69 1006.4
20260504185222 69 228 3.5 7.0 0.00 0.20 0.20 68 1006.2
20260504184725 69 229 3.5 7.8 0.00 0.20 0.20 67 1006.2
20260504183723 70 221 5.2 12.2 0.00 0.20 0.20 67 1005.5
20260504182723 70 208 8.7 17.4 0.00 0.20 0.20 66 1005.3
20260504182222 70 201 10.4 18.2 0.00 0.20 0.20 66 1004.7
20260504181724 70 190 8.7 18.2 0.00 0.20 0.20 64 1004.0
20260504181222 70 174 9.6 17.4 0.00 0.20 0.20 65 1003.3
20260504180722 70 183 13.0 21.7 0.00 0.20 0.20 67 1003.8
20260504180224 70 188 14.8 24.3 0.00 0.20 0.20 66 1004.2
20260504175723 70 192 13.0 24.3 0.00 0.20 0.20 65 1004.4
20260504175222 70 198 11.3 20.0 0.00 0.20 0.20 65 1004.8
20260504174725 70 203 10.4 19.1 0.00 0.20 0.20 65 1005.0
20260504173723 70 202 10.4 19.1 0.00 0.20 0.20 64 1005.0
20260504173224 70 199 10.4 19.1 0.00 0.20 0.20 65 1004.9
20260504172723 71 196 12.2 20.9 0.00 0.20 0.20 64 1005.0
20260504172223 71 198 12.2 20.9 0.00 0.20 0.20 63 1004.9
20260504171725 71 202 11.3 18.2 0.00 0.20 0.20 63 1004.9
20260504171222 71 200 12.2 22.6 0.00 0.20 0.20 64 1005.0
20260504170723 71 195 13.0 22.6 0.00 0.20 0.20 63 1004.9
20260504170224 71 193 12.2 20.9 0.00 0.20 0.20 64 1005.0
20260504160224 71 199 10.4 17.4 0.00 0.20 0.20 63 1006.2
20260504150722 69 209 11.3 18.2 0.00 0.20 0.20 65 1006.2
20260504150225 69 208 11.3 18.2 0.00 0.20 0.20 68 1006.2
20260504141222 67 203 10.4 19.1 0.00 0.20 0.20 72 1006.4
20260504140723 66 204 10.4 17.4 0.00 0.20 0.20 74 1006.6
20260504140224 66 204 11.3 19.1 0.00 0.20 0.20 73 1006.6
20260504130722 61 195 8.7 15.6 0.00 0.20 0.20 81 1007.0
20260504130224 61 193 8.7 14.8 0.00 0.20 0.20 81 1007.1
20260504120224 59 184 8.7 13.0 0.00 0.20 0.20 84 1007.3
20260504110224 58 183 7.8 12.2 0.00 0.21 0.20 86 1007.0
20260504100223 56 162 1.7 6.1 0.01 0.21 0.20 87 1007.3
20260504081724 57 185 4.3 8.7 0.08 0.20 0.19 87 1007.7
20260504080722 57 186 5.2 10.4 0.09 0.20 0.19 87 1007.4
20260504080223 57 190 4.3 10.4 0.09 0.20 0.19 87 1007.7
20260504070224 59 61 5.2 11.3 0.10 0.11 0.10 81 1007.1
20260504060223 61 229 3.5 9.6 0.00 0.01 0.00 70 1008.7
20260504050223 60 186 1.7 5.2 0.00 0.01 0.01 67 1007.7
20260504044723 61 188 2.6 6.1 0.00 0.01 0.01 66 1008.1
20260504044222 61 189 1.7 6.1 0.00 0.01 0.01 65 1008.3
20260504043722 61 185 0.9 3.5 0.00 0.01 0.01 64 1008.3
20260504043224 62 185 0.0 3.5 0.00 0.01 0.01 63 1008.4
20260504042722 62 186 0.0 2.6 0.00 0.01 0.01 62 1008.4
20260504042222 62 205 0.0 1.7 0.00 0.01 0.01 61 1008.5
20260504041723 63 251 0.0 3.5 0.00 0.01 0.01 61 1008.4
20260504041222 63 228 0.0 4.3 0.00 0.01 0.01 60 1008.6
20260504040722 63 209 0.9 5.2 0.00 0.01 0.01 60 1008.7
20260504040223 63 192 3.5 10.4 0.00 0.01 0.01 60 1008.6
20260504035722 63 187 6.1 13.9 0.00 0.01 0.01 60 1008.5
20260504035221 63 186 7.8 13.9 0.00 0.01 0.01 60 1008.6
20260504034724 63 182 7.0 11.3 0.00 0.01 0.01 60 1008.5
20260504034221 63 179 7.8 12.2 0.00 0.01 0.01 59 1008.6
20260504033223 64 178 7.0 12.2 0.00 0.01 0.01 59 1008.8
20260504032222 64 177 7.8 15.6 0.00 0.01 0.01 58 1008.9
20260504031724 64 176 7.8 13.0 0.00 0.01 0.01 58 1008.8
20260504031221 64 179 7.8 13.0 0.00 0.01 0.01 58 1008.7
20260504030722 64 183 8.7 15.6 0.00 0.01 0.01 58 1008.7
20260504030223 64 183 9.6 16.5 0.00 0.01 0.01 57 1008.6
20260504025722 64 185 9.6 16.5 0.00 0.01 0.01 58 1008.3
20260504025222 64 187 9.6 15.6 0.00 0.01 0.01 58 1008.3
20260504024723 64 185 10.4 18.2 0.00 0.01 0.01 57 1008.2
20260504024222 64 185 9.6 18.2 0.00 0.01 0.01 58 1008.1
20260504023223 64 186 9.6 16.5 0.00 0.01 0.01 57 1008.2